Location: Breitenfeld
(46.8500°N, 15.6333°E)
Time: 11:38:15
(UTC+00:00)

Envisat - Visible Passes

Search period start: 28 November 2022 00:00
Search period end: 08 December 2022 00:00
Orbit: 763 x 765 km, 98.2° (Epoch: 28 November)

Date Brightness Start Highest point End Pass type
(mag) Time Alt. Az. Time Alt. Az. Time Alt. Az.
28 Nov 5.3 02:29:13 10° NNE 02:30:59 19° NE 02:30:59 19° NE visible
28 Nov 4.0 04:08:06 10° N 04:11:09 30° NNW 04:11:09 30° NNW visible
29 Nov 4.2 03:30:51 10° N 03:33:31 32° N 03:33:31 32° N visible
29 Nov 4.7 05:11:58 10° NNW 05:13:41 13° NW 05:13:41 13° NW visible
30 Nov 4.9 02:53:57 10° NNE 02:55:54 23° NNE 02:55:54 23° NNE visible
30 Nov 4.3 04:33:35 10° N 04:36:04 21° NW 04:36:04 21° NW visible
30 Nov 6.1 15:53:47 10° WSW 15:55:56 13° W 15:58:05 10° WNW visible
01 Dec 5.7 02:17:31 10° NE 02:18:16 13° NE 02:18:16 13° NE visible
01 Dec 4.3 03:56:03 10° N 03:58:26 26° N 03:58:26 26° N visible
02 Dec 4.7 03:18:53 10° NNE 03:20:50 24° NNE 03:20:50 24° NNE visible
02 Dec 4.7 04:59:24 10° NNW 05:01:00 14° NW 05:01:00 14° NW visible
03 Dec 5.4 02:42:06 10° NNE 02:43:14 16° NNE 02:43:14 16° NNE visible
03 Dec 4.5 04:21:25 10° N 04:23:24 20° NNW 04:23:24 20° NNW visible
03 Dec 5.8 15:40:43 10° SW 15:43:49 16° W 15:46:56 10° NW visible
04 Dec 4.6 03:44:00 10° N 03:45:48 22° N 03:45:48 22° N visible
05 Dec 5.1 03:06:57 10° NNE 03:08:13 18° NNE 03:08:13 18° NNE visible
05 Dec 4.7 04:47:02 10° NNW 04:48:23 15° NNW 04:48:23 15° NNW visible
06 Dec 5.7 02:30:19 10° NNE 02:30:37 11° NNE 02:30:37 11° NNE visible
06 Dec 4.7 04:09:16 10° N 04:10:48 19° NNW 04:10:48 19° NNW visible
07 Dec 5.0 03:31:59 10° N 03:33:14 18° N 03:33:14 18° N visible
07 Dec 5.0 05:13:15 10° NNW 05:13:24 10° NNW 05:13:24 10° NNW visible
